Year,Month,Day,Hour,Minute,Value (Times are PST for temperature in C)
2009,07,20,00,00,14.10
2009,07,20,00,01,14.10
2009,07,20,00,02,14.10
2009,07,20,00,03,14.10
2009,07,20,00,04,14.10
2009,07,20,00,05,14.10
2009,07,20,00,06,14.10
2009,07,20,00,07,14.10
2009,07,20,00,08,14.10
2009,07,20,00,09,14.00
2009,07,20,00,10,14.00
2009,07,20,00,11,14.00
2009,07,20,00,12,14.00
2009,07,20,00,13,14.00
2009,07,20,00,14,14.00
2009,07,20,00,15,14.00
2009,07,20,00,16,14.00
2009,07,20,00,17,14.00
2009,07,20,00,18,14.00
2009,07,20,00,19,14.00
2009,07,20,00,20,14.00
2009,07,20,00,21,14.00
2009,07,20,00,22,14.00
2009,07,20,00,23,14.00
2009,07,20,00,24,14.00
2009,07,20,00,25,13.90
2009,07,20,00,26,13.90
2009,07,20,00,27,13.90
2009,07,20,00,28,13.90
2009,07,20,00,29,13.90
2009,07,20,00,30,13.90
2009,07,20,00,31,13.90
2009,07,20,00,32,13.90
2009,07,20,00,33,13.90
2009,07,20,00,34,13.90
2009,07,20,00,35,13.90
2009,07,20,00,36,13.90
2009,07,20,00,37,13.90
2009,07,20,00,38,13.90
2009,07,20,00,39,13.90
2009,07,20,00,40,13.90
2009,07,20,00,41,13.90
2009,07,20,00,42,13.80
2009,07,20,00,43,13.80
2009,07,20,00,44,13.80
2009,07,20,00,45,13.80
2009,07,20,00,46,13.80
2009,07,20,00,47,13.80
2009,07,20,00,48,13.80
2009,07,20,00,49,13.80
2009,07,20,00,50,13.80
2009,07,20,00,51,13.70
2009,07,20,00,52,13.70
2009,07,20,00,53,13.70
2009,07,20,00,54,13.70
2009,07,20,00,55,13.70
2009,07,20,00,56,13.70
2009,07,20,00,57,13.70
2009,07,20,00,58,13.70
2009,07,20,00,59,13.70
2009,07,20,01,00,13.70
2009,07,20,01,01,13.70
2009,07,20,01,02,13.70
2009,07,20,01,03,13.70
2009,07,20,01,04,13.70
2009,07,20,01,05,13.70
2009,07,20,01,06,13.60
2009,07,20,01,07,13.60
2009,07,20,01,08,13.60
2009,07,20,01,09,13.60
2009,07,20,01,10,13.60
2009,07,20,01,11,13.60
2009,07,20,01,12,13.60
2009,07,20,01,13,13.60
2009,07,20,01,14,13.50
2009,07,20,01,15,13.50
2009,07,20,01,16,13.50
2009,07,20,01,17,13.50
2009,07,20,01,18,13.50
2009,07,20,01,19,13.50
2009,07,20,01,20,13.50
2009,07,20,01,21,13.50
2009,07,20,01,22,13.40
2009,07,20,01,23,13.40
2009,07,20,01,24,13.40
2009,07,20,01,25,13.40
2009,07,20,01,26,13.40
2009,07,20,01,27,13.40
2009,07,20,01,28,13.40
2009,07,20,01,29,13.30
2009,07,20,01,30,13.30
2009,07,20,01,31,13.30
2009,07,20,01,32,13.30
2009,07,20,01,33,13.30
2009,07,20,01,34,13.30
2009,07,20,01,35,13.30
2009,07,20,01,36,13.30
2009,07,20,01,37,13.30
2009,07,20,01,38,13.30
2009,07,20,01,39,13.30
2009,07,20,01,40,13.30
2009,07,20,01,41,13.30
2009,07,20,01,42,13.30
2009,07,20,01,43,13.30
2009,07,20,01,44,13.20
2009,07,20,01,45,13.20
2009,07,20,01,46,13.20
2009,07,20,01,47,13.20
2009,07,20,01,48,13.20
2009,07,20,01,49,13.20
2009,07,20,01,50,13.20
2009,07,20,01,51,13.20
2009,07,20,01,52,13.10
2009,07,20,01,53,13.10
2009,07,20,01,54,13.10
2009,07,20,01,55,13.10
2009,07,20,01,56,13.10
2009,07,20,01,57,13.10
2009,07,20,01,58,13.10
2009,07,20,01,59,13.10
2009,07,20,02,00,13.10
2009,07,20,02,01,13.00
2009,07,20,02,02,13.00
2009,07,20,02,03,13.00
2009,07,20,02,04,13.00
2009,07,20,02,05,13.00
2009,07,20,02,06,13.00
2009,07,20,02,07,12.90
2009,07,20,02,08,12.90
2009,07,20,02,09,12.90
2009,07,20,02,10,12.90
2009,07,20,02,11,12.90
2009,07,20,02,12,12.80
2009,07,20,02,13,12.80
2009,07,20,02,14,12.80
2009,07,20,02,15,12.80
2009,07,20,02,16,12.80
2009,07,20,02,17,12.80
2009,07,20,02,18,12.80
2009,07,20,02,19,12.80
2009,07,20,02,20,12.80
2009,07,20,02,21,12.80
2009,07,20,02,22,12.80
2009,07,20,02,23,12.80
2009,07,20,02,24,12.80
2009,07,20,02,25,12.80
2009,07,20,02,26,12.70
2009,07,20,02,27,12.70
2009,07,20,02,28,12.70
2009,07,20,02,29,12.70
2009,07,20,02,30,12.70
2009,07,20,02,31,12.70
2009,07,20,02,32,12.60
2009,07,20,02,33,12.60
2009,07,20,02,34,12.60
2009,07,20,02,35,12.60
2009,07,20,02,36,12.60
2009,07,20,02,37,12.60
2009,07,20,02,38,12.60
2009,07,20,02,39,12.60
2009,07,20,02,40,12.50
2009,07,20,02,41,12.50
2009,07,20,02,42,12.50
2009,07,20,02,43,12.50
2009,07,20,02,44,12.50
2009,07,20,02,45,12.50
2009,07,20,02,46,12.50
2009,07,20,02,47,12.50
2009,07,20,02,48,12.50
2009,07,20,02,49,12.40
2009,07,20,02,50,12.40
2009,07,20,02,51,12.40
2009,07,20,02,52,12.40
2009,07,20,02,53,12.40
2009,07,20,02,54,12.40
2009,07,20,02,55,12.40
2009,07,20,02,56,12.40
2009,07,20,02,57,12.40
2009,07,20,02,58,12.40
2009,07,20,02,59,12.40
2009,07,20,03,00,12.40
2009,07,20,03,01,12.40
2009,07,20,03,02,12.30
2009,07,20,03,03,12.30
2009,07,20,03,04,12.30
2009,07,20,03,05,12.30
2009,07,20,03,06,12.30
2009,07,20,03,07,12.30
2009,07,20,03,08,12.30
2009,07,20,03,09,12.30
2009,07,20,03,10,12.30
2009,07,20,03,11,12.30
2009,07,20,03,12,12.30
2009,07,20,03,13,12.30
2009,07,20,03,14,12.30
2009,07,20,03,15,12.30
2009,07,20,03,16,12.30
2009,07,20,03,17,12.30
2009,07,20,03,18,12.30
2009,07,20,03,19,12.30
2009,07,20,03,20,12.30
2009,07,20,03,21,12.30
2009,07,20,03,22,12.30
2009,07,20,03,23,12.30
2009,07,20,03,24,12.30
2009,07,20,03,25,12.40
2009,07,20,03,26,12.40
2009,07,20,03,27,12.40
2009,07,20,03,28,12.40
2009,07,20,03,29,12.50
2009,07,20,03,30,12.50
2009,07,20,03,31,12.50
2009,07,20,03,32,12.50
2009,07,20,03,33,12.60
2009,07,20,03,34,12.60
2009,07,20,03,35,12.60
2009,07,20,03,36,12.70
2009,07,20,03,37,12.70
2009,07,20,03,38,12.80
2009,07,20,03,39,12.80
2009,07,20,03,40,12.80
2009,07,20,03,41,12.80
2009,07,20,03,42,12.90
2009,07,20,03,43,13.00
2009,07,20,03,44,13.00
2009,07,20,03,45,13.10
2009,07,20,03,46,13.10
2009,07,20,03,47,13.20
2009,07,20,03,48,13.20
2009,07,20,03,49,13.30
2009,07,20,03,50,13.30
2009,07,20,03,51,13.40
2009,07,20,03,52,13.50
2009,07,20,03,53,13.50
2009,07,20,03,54,13.60
2009,07,20,03,55,13.70
2009,07,20,03,56,13.70
2009,07,20,03,57,13.70
2009,07,20,03,58,13.80
2009,07,20,03,59,13.80
2009,07,20,04,00,13.80
2009,07,20,04,01,13.90
2009,07,20,04,02,13.90
2009,07,20,04,03,13.90
2009,07,20,04,04,14.00
2009,07,20,04,05,14.00
2009,07,20,04,06,14.00
2009,07,20,04,07,14.10
2009,07,20,04,08,14.10
2009,07,20,04,09,14.10
2009,07,20,04,10,14.20
2009,07,20,04,11,14.20
2009,07,20,04,12,14.20
2009,07,20,04,13,14.20
2009,07,20,04,14,14.20
2009,07,20,04,15,14.20
2009,07,20,04,16,14.20
2009,07,20,04,17,14.20
2009,07,20,04,18,14.20
2009,07,20,04,19,14.20
2009,07,20,04,20,14.20
2009,07,20,04,21,14.20
2009,07,20,04,22,14.20
2009,07,20,04,23,14.30
2009,07,20,04,24,14.30
2009,07,20,04,25,14.30
2009,07,20,04,26,14.30
2009,07,20,04,27,14.30
2009,07,20,04,28,14.30
2009,07,20,04,29,14.30
2009,07,20,04,30,14.30
2009,07,20,04,31,14.30
2009,07,20,04,32,14.30
2009,07,20,04,33,14.30
2009,07,20,04,34,14.40
2009,07,20,04,35,14.40
2009,07,20,04,36,14.40
2009,07,20,04,37,14.50
2009,07,20,04,38,14.50
2009,07,20,04,39,14.50
2009,07,20,04,40,14.60
2009,07,20,04,41,14.60
2009,07,20,04,42,14.60
2009,07,20,04,43,14.70
2009,07,20,04,44,14.70
2009,07,20,04,45,14.80
2009,07,20,04,46,14.80
2009,07,20,04,47,14.80
2009,07,20,04,48,14.80
2009,07,20,04,49,14.90
2009,07,20,04,50,14.90
2009,07,20,04,51,15.00
2009,07,20,04,52,15.00
2009,07,20,04,53,15.10
2009,07,20,04,54,15.10
2009,07,20,04,55,15.20
2009,07,20,04,56,15.20
2009,07,20,04,57,15.30
2009,07,20,04,58,15.30
2009,07,20,04,59,15.30
2009,07,20,05,00,15.30
2009,07,20,05,01,15.40
2009,07,20,05,02,15.40
2009,07,20,05,03,15.40
2009,07,20,05,04,15.40
2009,07,20,05,05,15.50
2009,07,20,05,06,15.50
2009,07,20,05,07,15.50
2009,07,20,05,08,15.60
2009,07,20,05,09,15.60
2009,07,20,05,10,15.60
2009,07,20,05,11,15.70
2009,07,20,05,12,15.70
2009,07,20,05,13,15.80
2009,07,20,05,14,15.80
2009,07,20,05,15,15.80
2009,07,20,05,16,15.80
2009,07,20,05,17,15.90
2009,07,20,05,18,15.90
2009,07,20,05,19,15.90
2009,07,20,05,20,16.10
2009,07,20,05,21,16.10
2009,07,20,05,22,16.10
2009,07,20,05,23,16.10
2009,07,20,05,24,16.10
2009,07,20,05,25,16.10
2009,07,20,05,26,16.10
2009,07,20,05,27,16.10
2009,07,20,05,28,16.20
2009,07,20,05,29,16.20
2009,07,20,05,30,16.20
2009,07,20,05,31,16.20
2009,07,20,05,32,16.20
2009,07,20,05,33,16.20
2009,07,20,05,34,16.20
2009,07,20,05,35,16.20
2009,07,20,05,36,16.20
2009,07,20,05,37,16.20
2009,07,20,05,38,16.20
2009,07,20,05,39,16.20
2009,07,20,05,40,16.20
2009,07,20,05,41,16.20
2009,07,20,05,42,16.20
2009,07,20,05,43,16.20
2009,07,20,05,44,16.20
2009,07,20,05,45,16.10
2009,07,20,05,46,16.10
2009,07,20,05,47,16.10
2009,07,20,05,48,16.10
2009,07,20,05,49,16.10
2009,07,20,05,50,16.10
2009,07,20,05,51,16.10
2009,07,20,05,52,16.10
2009,07,20,05,53,16.10
2009,07,20,05,54,16.10
2009,07,20,05,55,16.10
2009,07,20,05,56,16.00
2009,07,20,05,57,15.90
2009,07,20,05,58,15.90
2009,07,20,05,59,15.90
2009,07,20,06,00,15.90
2009,07,20,06,01,15.90
2009,07,20,06,02,15.90
2009,07,20,06,03,15.90
2009,07,20,06,04,15.90
2009,07,20,06,05,15.90
2009,07,20,06,06,15.90
2009,07,20,06,07,15.90
2009,07,20,06,08,15.90
2009,07,20,06,09,15.90
2009,07,20,06,10,15.90
2009,07,20,06,11,16.00
2009,07,20,06,12,16.10
2009,07,20,06,13,16.10
2009,07,20,06,14,16.10
2009,07,20,06,15,16.10
2009,07,20,06,16,16.10
2009,07,20,06,17,16.20
2009,07,20,06,18,16.20
2009,07,20,06,19,16.20
2009,07,20,06,20,16.30
2009,07,20,06,21,16.30
2009,07,20,06,22,16.30
2009,07,20,06,23,16.30
2009,07,20,06,24,16.40
2009,07,20,06,25,16.40
2009,07,20,06,26,16.40
2009,07,20,06,27,16.50
2009,07,20,06,28,16.60
2009,07,20,06,29,16.60
2009,07,20,06,30,16.60
2009,07,20,06,31,16.60
2009,07,20,06,32,16.60
2009,07,20,06,33,16.70
2009,07,20,06,34,16.70
2009,07,20,06,35,16.70
2009,07,20,06,36,16.70
2009,07,20,06,37,16.70
2009,07,20,06,38,16.70
2009,07,20,06,39,16.70
2009,07,20,06,40,16.70
2009,07,20,06,41,16.70
2009,07,20,06,42,16.70
2009,07,20,06,43,16.70
2009,07,20,06,44,16.70
2009,07,20,06,45,16.70
2009,07,20,06,46,16.70
2009,07,20,06,47,16.70
2009,07,20,06,48,16.80
2009,07,20,06,49,16.80
2009,07,20,06,50,16.80
2009,07,20,06,51,16.80
2009,07,20,06,52,16.80
2009,07,20,06,53,16.80
2009,07,20,06,54,16.90
2009,07,20,06,55,16.90
2009,07,20,06,56,16.90
2009,07,20,06,57,16.90
2009,07,20,06,58,16.90
2009,07,20,06,59,16.90
2009,07,20,07,00,16.90
2009,07,20,07,01,17.00
2009,07,20,07,02,17.00
2009,07,20,07,03,17.00
2009,07,20,07,04,17.00
2009,07,20,07,05,17.10
2009,07,20,07,06,17.10
2009,07,20,07,07,17.10
2009,07,20,07,08,17.10
2009,07,20,07,09,17.10
2009,07,20,07,10,17.10
2009,07,20,07,11,17.20
2009,07,20,07,12,17.20
2009,07,20,07,13,17.20
2009,07,20,07,14,17.20
2009,07,20,07,15,17.20
2009,07,20,07,16,17.30
2009,07,20,07,17,17.30
2009,07,20,07,18,17.30
2009,07,20,07,19,17.30
2009,07,20,07,20,17.30
2009,07,20,07,21,17.30
2009,07,20,07,22,17.30
2009,07,20,07,23,17.30
2009,07,20,07,24,17.30
2009,07,20,07,25,17.30
2009,07,20,07,26,17.30
2009,07,20,07,27,17.30
2009,07,20,07,28,17.30
2009,07,20,07,29,17.30
2009,07,20,07,30,17.30
2009,07,20,07,31,17.40
2009,07,20,07,32,17.40
2009,07,20,07,33,17.40
2009,07,20,07,34,17.40
2009,07,20,07,35,17.40
2009,07,20,07,36,17.50
2009,07,20,07,37,17.50
2009,07,20,07,38,17.50
2009,07,20,07,39,17.50
2009,07,20,07,40,17.50
2009,07,20,07,41,17.60
2009,07,20,07,42,17.60
2009,07,20,07,43,17.60
2009,07,20,07,44,17.60
2009,07,20,07,45,17.60
2009,07,20,07,46,17.60
2009,07,20,07,47,17.70
2009,07,20,07,48,17.70
2009,07,20,07,49,17.70
2009,07,20,07,50,17.70
2009,07,20,07,51,17.70
2009,07,20,07,52,17.70
2009,07,20,07,53,17.80
2009,07,20,07,54,17.80
2009,07,20,07,55,17.80
2009,07,20,07,56,17.80
2009,07,20,07,57,17.90
2009,07,20,07,58,17.90
2009,07,20,07,59,17.90
2009,07,20,08,00,17.90
2009,07,20,08,01,17.90
2009,07,20,08,02,17.90
2009,07,20,08,03,18.10
2009,07,20,08,04,18.10
2009,07,20,08,05,18.10
2009,07,20,08,06,18.10
2009,07,20,08,07,18.20
2009,07,20,08,08,18.20
2009,07,20,08,09,18.20
2009,07,20,08,10,18.20
2009,07,20,08,11,18.30
2009,07,20,08,12,18.30
2009,07,20,08,13,18.30
2009,07,20,08,14,18.40
2009,07,20,08,15,18.40
2009,07,20,08,16,18.40
2009,07,20,08,17,18.40
2009,07,20,08,18,18.50
2009,07,20,08,19,18.50
2009,07,20,08,20,18.50
2009,07,20,08,21,18.60
2009,07,20,08,22,18.60
2009,07,20,08,23,18.60
2009,07,20,08,24,18.70
2009,07,20,08,25,18.70
2009,07,20,08,26,18.70
2009,07,20,08,27,18.70
2009,07,20,08,28,18.80
2009,07,20,08,29,18.80
2009,07,20,08,30,18.80
2009,07,20,08,31,18.90
2009,07,20,08,32,18.90
2009,07,20,08,33,18.90
2009,07,20,08,34,18.90
2009,07,20,08,35,19.00
2009,07,20,08,36,19.10
2009,07,20,08,37,19.10
2009,07,20,08,38,19.10
2009,07,20,08,39,19.10
2009,07,20,08,40,19.10
2009,07,20,08,41,19.20
2009,07,20,08,42,19.20
2009,07,20,08,43,19.20
2009,07,20,08,44,19.20
2009,07,20,08,45,19.20
2009,07,20,08,46,19.30
2009,07,20,08,47,19.30
2009,07,20,08,48,19.40
2009,07,20,08,49,19.40
2009,07,20,08,50,19.40
2009,07,20,08,51,19.50
2009,07,20,08,52,19.50
2009,07,20,08,53,19.50
2009,07,20,08,54,19.50
2009,07,20,08,55,19.50
2009,07,20,08,56,19.60
2009,07,20,08,57,19.60
2009,07,20,08,58,19.60
2009,07,20,08,59,19.60
2009,07,20,09,00,19.60
2009,07,20,09,01,19.60
2009,07,20,09,02,19.70
2009,07,20,09,03,19.70
2009,07,20,09,04,19.70
2009,07,20,09,05,19.80
2009,07,20,09,06,19.80
2009,07,20,09,07,19.80
2009,07,20,09,08,19.80
2009,07,20,09,09,19.80
2009,07,20,09,10,19.90
2009,07,20,09,11,19.90
2009,07,20,09,12,19.90
2009,07,20,09,13,19.90
2009,07,20,09,14,19.90
2009,07,20,09,15,19.90
2009,07,20,09,16,19.90
2009,07,20,09,17,19.90
2009,07,20,09,18,20.00
2009,07,20,09,19,20.10
2009,07,20,09,20,20.20
2009,07,20,09,21,20.20
2009,07,20,09,22,20.30
2009,07,20,09,23,20.40
2009,07,20,09,24,20.40
2009,07,20,09,25,20.50
2009,07,20,09,26,20.60
2009,07,20,09,27,20.70
2009,07,20,09,28,20.80
2009,07,20,09,29,20.80
2009,07,20,09,30,20.90
2009,07,20,09,31,21.00
2009,07,20,09,32,21.00
2009,07,20,09,33,21.10
2009,07,20,09,34,21.20
2009,07,20,09,35,21.30
2009,07,20,09,36,21.30
2009,07,20,09,37,21.30
2009,07,20,09,38,21.30
2009,07,20,09,39,21.30
2009,07,20,09,40,21.30
2009,07,20,09,41,21.30
2009,07,20,09,42,21.30
2009,07,20,09,43,21.30
2009,07,20,09,44,21.30
2009,07,20,09,45,21.30
2009,07,20,09,46,21.30
2009,07,20,09,47,21.30
2009,07,20,09,48,21.30
2009,07,20,09,49,21.30
2009,07,20,09,50,21.30
2009,07,20,09,51,21.30
2009,07,20,09,52,21.30
2009,07,20,09,53,21.30
2009,07,20,09,54,21.30
2009,07,20,09,55,21.30
2009,07,20,09,56,21.30
2009,07,20,09,57,21.30
2009,07,20,09,58,21.30
2009,07,20,09,59,21.30
2009,07,20,10,00,21.30
2009,07,20,10,01,21.30
2009,07,20,10,02,21.30
2009,07,20,10,03,21.30
2009,07,20,10,04,21.30
2009,07,20,10,05,21.30
2009,07,20,10,06,21.30
2009,07,20,10,07,21.30
2009,07,20,10,08,21.30
2009,07,20,10,09,21.30
2009,07,20,10,10,21.30
2009,07,20,10,11,21.40
2009,07,20,10,12,21.40
2009,07,20,10,13,21.60
2009,07,20,10,14,21.60
2009,07,20,10,15,21.70
2009,07,20,10,16,21.90
2009,07,20,10,17,22.00
2009,07,20,10,18,22.10
2009,07,20,10,19,22.20
2009,07,20,10,20,22.30
2009,07,20,10,21,22.30
2009,07,20,10,22,22.30
2009,07,20,10,23,22.30
2009,07,20,10,24,22.30
2009,07,20,10,25,22.30
2009,07,20,10,26,22.20
2009,07,20,10,27,22.20
2009,07,20,10,28,22.10
2009,07,20,10,29,22.10
2009,07,20,10,30,22.10
2009,07,20,10,31,22.10
2009,07,20,10,32,22.20
2009,07,20,10,33,22.30
2009,07,20,10,34,22.40
2009,07,20,10,35,22.50
2009,07,20,10,36,22.50
2009,07,20,10,37,22.50
2009,07,20,10,38,22.50
2009,07,20,10,39,22.50
2009,07,20,10,40,22.60
2009,07,20,10,41,22.70
2009,07,20,10,42,22.70
2009,07,20,10,43,22.80
2009,07,20,10,44,22.80
2009,07,20,10,45,22.80
2009,07,20,10,46,22.80
2009,07,20,10,47,22.80
2009,07,20,10,48,22.80
2009,07,20,10,49,22.90
2009,07,20,10,50,22.90
2009,07,20,10,51,22.90
2009,07,20,10,52,22.90
2009,07,20,10,53,22.90
2009,07,20,10,54,22.80
2009,07,20,10,55,22.80
2009,07,20,10,56,22.80
2009,07,20,10,57,22.80
2009,07,20,10,58,22.90
2009,07,20,10,59,22.90
2009,07,20,11,00,23.00
2009,07,20,11,01,23.10
2009,07,20,11,02,23.00
2009,07,20,11,03,22.90
2009,07,20,11,04,22.90
2009,07,20,11,05,22.80
2009,07,20,11,06,22.80
2009,07,20,11,07,22.80
2009,07,20,11,08,22.80
2009,07,20,11,09,22.70
2009,07,20,11,10,22.70
2009,07,20,11,11,22.80
2009,07,20,11,12,22.80
2009,07,20,11,13,22.70
2009,07,20,11,14,22.70
2009,07,20,11,15,22.70
2009,07,20,11,16,22.80
2009,07,20,11,17,22.90
2009,07,20,11,18,22.90
2009,07,20,11,19,22.90
2009,07,20,11,20,22.90
2009,07,20,11,21,22.80
2009,07,20,11,22,22.80
2009,07,20,11,23,22.90
2009,07,20,11,24,22.90
2009,07,20,11,25,23.00
2009,07,20,11,26,23.10
2009,07,20,11,27,23.10
2009,07,20,11,28,23.30
2009,07,20,11,29,23.40
2009,07,20,11,30,23.40
2009,07,20,11,31,23.40
2009,07,20,11,32,23.30
2009,07,20,11,33,23.30
2009,07,20,11,34,23.30
2009,07,20,11,35,23.30
2009,07,20,11,36,23.30
2009,07,20,11,37,23.30
2009,07,20,11,38,23.30
2009,07,20,11,39,23.30
2009,07,20,11,40,23.30
2009,07,20,11,41,23.30
2009,07,20,11,42,23.40
2009,07,20,11,43,23.60
2009,07,20,11,44,23.70
2009,07,20,11,45,23.80
2009,07,20,11,46,23.80
2009,07,20,11,47,23.80
2009,07,20,11,48,23.70
2009,07,20,11,49,23.70
2009,07,20,11,50,23.70
2009,07,20,11,51,23.70
2009,07,20,11,52,23.70
2009,07,20,11,53,23.70
2009,07,20,11,54,23.70
2009,07,20,11,55,23.60
2009,07,20,11,56,23.60
2009,07,20,11,57,23.60
2009,07,20,11,58,23.60
2009,07,20,11,59,23.60
2009,07,20,12,00,23.70
2009,07,20,12,01,23.70
2009,07,20,12,02,23.70
2009,07,20,12,03,23.70
2009,07,20,12,04,23.70
2009,07,20,12,05,23.80
2009,07,20,12,06,23.80
2009,07,20,12,07,23.80
2009,07,20,12,08,23.70
2009,07,20,12,09,23.70
2009,07,20,12,10,23.80
2009,07,20,12,11,23.80
2009,07,20,12,12,23.70
2009,07,20,12,13,23.70
2009,07,20,12,14,23.70
2009,07,20,12,15,23.70
2009,07,20,12,16,23.70
2009,07,20,12,17,23.70
2009,07,20,12,18,23.70
2009,07,20,12,19,23.70
2009,07,20,12,20,23.70
2009,07,20,12,21,23.70
2009,07,20,12,22,23.80
2009,07,20,12,23,23.80
2009,07,20,12,24,23.90
2009,07,20,12,25,23.90
2009,07,20,12,26,24.00
2009,07,20,12,27,24.10
2009,07,20,12,28,24.10
2009,07,20,12,29,24.10
2009,07,20,12,30,24.10
2009,07,20,12,31,24.10
2009,07,20,12,32,24.10
2009,07,20,12,33,24.10
2009,07,20,12,34,24.10
2009,07,20,12,35,24.10
2009,07,20,12,36,24.10
2009,07,20,12,37,24.10
2009,07,20,12,38,24.10
2009,07,20,12,39,24.10
2009,07,20,12,40,24.10
2009,07,20,12,41,24.10
2009,07,20,12,42,24.10
2009,07,20,12,43,24.20
2009,07,20,12,44,24.20
2009,07,20,12,45,24.20
2009,07,20,12,46,24.20
2009,07,20,12,47,24.30
2009,07,20,12,48,24.40
2009,07,20,12,49,24.50
2009,07,20,12,50,24.50
2009,07,20,12,51,24.50
2009,07,20,12,52,24.60
2009,07,20,12,53,24.60
2009,07,20,12,54,24.60
2009,07,20,12,55,24.60
2009,07,20,12,56,24.60
2009,07,20,12,57,24.60
2009,07,20,12,58,24.60
2009,07,20,12,59,24.50
2009,07,20,13,00,24.40
2009,07,20,13,01,24.40
2009,07,20,13,02,24.50
2009,07,20,13,03,24.50
2009,07,20,13,04,24.60
2009,07,20,13,05,24.60
2009,07,20,13,06,24.60
2009,07,20,13,07,24.60
2009,07,20,13,08,24.60
2009,07,20,13,09,24.50
2009,07,20,13,10,24.50
2009,07,20,13,11,24.50
2009,07,20,13,12,24.50
2009,07,20,13,13,24.60
2009,07,20,13,14,24.80
2009,07,20,13,15,24.80
2009,07,20,13,16,24.90
2009,07,20,13,17,24.90
2009,07,20,13,18,24.90
2009,07,20,13,19,24.80
2009,07,20,13,20,24.80
2009,07,20,13,21,24.80
2009,07,20,13,22,24.80
2009,07,20,13,23,24.80
2009,07,20,13,24,24.70
2009,07,20,13,25,24.70
2009,07,20,13,26,24.70
2009,07,20,13,27,24.80
2009,07,20,13,28,24.90
2009,07,20,13,29,24.90
2009,07,20,13,30,24.90
2009,07,20,13,31,24.80
2009,07,20,13,32,24.80
2009,07,20,13,33,24.80
2009,07,20,13,34,24.90
2009,07,20,13,35,25.00
2009,07,20,13,36,25.10
2009,07,20,13,37,25.20
2009,07,20,13,38,25.30
2009,07,20,13,39,25.40
2009,07,20,13,40,25.40
2009,07,20,13,41,25.40
2009,07,20,13,42,25.40
2009,07,20,13,43,25.40
2009,07,20,13,44,25.40
2009,07,20,13,45,25.40
2009,07,20,13,46,25.40
2009,07,20,13,47,25.40
2009,07,20,13,48,25.50
2009,07,20,13,49,25.60
2009,07,20,13,50,25.80
2009,07,20,13,51,25.80
2009,07,20,13,52,25.90
2009,07,20,13,53,25.80
2009,07,20,13,54,25.70
2009,07,20,13,55,25.70
2009,07,20,13,56,25.70
2009,07,20,13,57,25.60
2009,07,20,13,58,25.50
2009,07,20,13,59,25.60
2009,07,20,14,00,25.70
2009,07,20,14,01,25.80
2009,07,20,14,02,25.80
2009,07,20,14,03,25.80
2009,07,20,14,04,25.80
2009,07,20,14,05,25.80
2009,07,20,14,06,25.60
2009,07,20,14,07,25.40
2009,07,20,14,08,25.40
2009,07,20,14,09,25.30
2009,07,20,14,10,25.30
2009,07,20,14,11,25.20
2009,07,20,14,12,25.20
2009,07,20,14,13,25.40
2009,07,20,14,14,25.50
2009,07,20,14,15,25.50
2009,07,20,14,16,25.70
2009,07,20,14,17,25.80
2009,07,20,14,18,25.90
2009,07,20,14,19,25.80
2009,07,20,14,20,25.70
2009,07,20,14,21,25.70
2009,07,20,14,22,25.70
2009,07,20,14,23,25.70
2009,07,20,14,24,25.70
2009,07,20,14,25,25.60
2009,07,20,14,26,25.60
2009,07,20,14,27,25.60
2009,07,20,14,28,25.70
2009,07,20,14,29,25.90
2009,07,20,14,30,26.10
2009,07,20,14,31,26.20
2009,07,20,14,32,26.40
2009,07,20,14,33,26.50
2009,07,20,14,34,26.60
2009,07,20,14,35,26.60
2009,07,20,14,36,26.60
2009,07,20,14,37,26.60
2009,07,20,14,38,26.70
2009,07,20,14,39,26.80
2009,07,20,14,40,26.90
2009,07,20,14,41,26.90
2009,07,20,14,42,27.00
2009,07,20,14,43,27.10
2009,07,20,14,44,27.00
2009,07,20,14,45,26.90
2009,07,20,14,46,26.90
2009,07,20,14,47,26.90
2009,07,20,14,48,26.80
2009,07,20,14,49,26.80
2009,07,20,14,50,26.80
2009,07,20,14,51,26.70
2009,07,20,14,52,26.80
2009,07,20,14,53,26.80
2009,07,20,14,54,26.90
2009,07,20,14,55,26.90
2009,07,20,14,56,26.90
2009,07,20,14,57,26.90
2009,07,20,14,58,27.00
2009,07,20,14,59,27.00
2009,07,20,15,00,27.00
2009,07,20,15,01,26.90
2009,07,20,15,02,26.90
2009,07,20,15,03,26.80
2009,07,20,15,04,26.60
2009,07,20,15,05,26.50
2009,07,20,15,06,26.20
2009,07,20,15,07,26.00
2009,07,20,15,08,25.80
2009,07,20,15,09,25.70
2009,07,20,15,10,25.70
2009,07,20,15,11,25.60
2009,07,20,15,12,25.70
2009,07,20,15,13,25.70
2009,07,20,15,14,25.80
2009,07,20,15,15,25.90
2009,07,20,15,16,26.00
2009,07,20,15,17,26.00
2009,07,20,15,18,26.00
2009,07,20,15,19,25.90
2009,07,20,15,20,25.90
2009,07,20,15,21,25.90
2009,07,20,15,22,25.90
2009,07,20,15,23,25.90
2009,07,20,15,24,25.90
2009,07,20,15,25,25.90
2009,07,20,15,26,25.80
2009,07,20,15,27,25.70
2009,07,20,15,28,25.60
2009,07,20,15,29,25.50
2009,07,20,15,30,25.40
2009,07,20,15,31,25.30
2009,07,20,15,32,25.30
2009,07,20,15,33,25.40
2009,07,20,15,34,25.40
2009,07,20,15,35,25.40
2009,07,20,15,36,25.30
2009,07,20,15,37,25.30
2009,07,20,15,38,25.20
2009,07,20,15,39,25.10
2009,07,20,15,40,25.00
2009,07,20,15,41,25.00
2009,07,20,15,42,25.00
2009,07,20,15,43,24.90
2009,07,20,15,44,24.90
2009,07,20,15,45,24.90
2009,07,20,15,46,24.90
2009,07,20,15,47,24.80
2009,07,20,15,48,24.80
2009,07,20,15,49,24.90
2009,07,20,15,50,24.90
2009,07,20,15,51,25.00
2009,07,20,15,52,24.90
2009,07,20,15,53,24.90
2009,07,20,15,54,24.90
2009,07,20,15,55,24.80
2009,07,20,15,56,24.80
2009,07,20,15,57,24.80
2009,07,20,15,58,24.80
2009,07,20,15,59,24.80
2009,07,20,16,00,24.80
2009,07,20,16,01,24.80
2009,07,20,16,02,24.70
2009,07,20,16,03,24.60
2009,07,20,16,04,24.50
2009,07,20,16,05,24.50
2009,07,20,16,06,24.40
2009,07,20,16,07,24.20
2009,07,20,16,08,24.10
2009,07,20,16,09,24.00
2009,07,20,16,10,23.90
2009,07,20,16,11,23.80
2009,07,20,16,12,23.70
2009,07,20,16,13,23.70
2009,07,20,16,14,23.60
2009,07,20,16,15,23.60
2009,07,20,16,16,23.50
2009,07,20,16,17,23.40
2009,07,20,16,18,23.30
2009,07,20,16,19,23.30
2009,07,20,16,20,23.20
2009,07,20,16,21,23.10
2009,07,20,16,22,23.10
2009,07,20,16,23,23.10
2009,07,20,16,24,23.00
2009,07,20,16,25,23.00
2009,07,20,16,26,23.10
2009,07,20,16,27,23.10
2009,07,20,16,28,23.20
2009,07,20,16,29,23.20
2009,07,20,16,30,23.30
2009,07,20,16,31,23.30
2009,07,20,16,32,23.30
2009,07,20,16,33,23.30
2009,07,20,16,34,23.20
2009,07,20,16,35,23.20
2009,07,20,16,36,23.10
2009,07,20,16,37,22.90
2009,07,20,16,38,22.90
2009,07,20,16,39,22.80
2009,07,20,16,40,22.80
2009,07,20,16,41,22.80
2009,07,20,16,42,22.90
2009,07,20,16,43,22.90
2009,07,20,16,44,22.90
2009,07,20,16,45,23.00
2009,07,20,16,46,23.10
2009,07,20,16,47,23.30
2009,07,20,16,48,23.30
2009,07,20,16,49,23.30
2009,07,20,16,50,23.40
2009,07,20,16,51,23.40
2009,07,20,16,52,23.60
2009,07,20,16,53,23.70
2009,07,20,16,54,23.70
2009,07,20,16,55,23.70
2009,07,20,16,56,23.80
2009,07,20,16,57,23.70
2009,07,20,16,58,23.70
2009,07,20,16,59,23.70
2009,07,20,17,00,23.70
2009,07,20,17,01,23.70
2009,07,20,17,02,23.70
2009,07,20,17,03,23.70
2009,07,20,17,04,23.70
2009,07,20,17,05,23.70
2009,07,20,17,06,23.70
2009,07,20,17,07,23.70
2009,07,20,17,08,23.70
2009,07,20,17,09,23.70
2009,07,20,17,10,23.70
2009,07,20,17,11,23.70
2009,07,20,17,12,23.70
2009,07,20,17,13,23.60
2009,07,20,17,14,23.60
2009,07,20,17,15,23.60
2009,07,20,17,16,23.60
2009,07,20,17,17,23.60
2009,07,20,17,18,23.60
2009,07,20,17,19,23.60